When you browse on this site, cookies collect data to enhance your experience and personalize the content and advertising you see.
Visit our Privacy Policy to learn more. By continuing to use the site, you agree to this use of cookies and data.
  • In France
  • List of Countries
  • For 7 days
  • Water Temperature
  • Satellite Maps
  • Weather Map
  • Weather Widgets
  • user-avatar
    Login

    Hourly Weather Kalgoorlie

    Today, 23 January, Wednesday

    Time Temperature Precipitation Wind Pressure Humidity
    00:00 +27°C° 0.6 mm 7 mps 719 mmHg 61%
    01:00 +27°C° 0.6 mm 6 mps 719 mmHg 62%
    02:00 +28°C° 0 mm 2 mps 719 mmHg 59%
    03:00 +28°C° 0.5 mm 2 mps 719 mmHg 59%
    04:00 +28°C° 0.5 mm 3 mps 719 mmHg 58%
    05:00 +29°C° 0.5 mm 3 mps 720 mmHg 58%
    06:00 +29°C° 0.2 mm 4 mps 720 mmHg 55%
    07:00 +29°C° 0.2 mm 5 mps 720 mmHg 52%
    08:00 +30°C° 0 mm 6 mps 721 mmHg 45%
    09:00 +32°C° 0 mm 6 mps 721 mmHg 40%
    10:00 +33°C° 0 mm 6 mps 721 mmHg 36%
    11:00 +35°C° 0 mm 6 mps 721 mmHg 31%
    12:00 +36°C° 0 mm 7 mps 721 mmHg 26%
    13:00 +39°C° 0 mm 8 mps 721 mmHg 22%
    14:00 +40°C° 0 mm 9 mps 721 mmHg 17%
    15:00 +39°C° 0 mm 10 mps 721 mmHg 16%
    16:00 +38°C° 0 mm 10 mps 721 mmHg 16%
    17:00 +37°C° 0 mm 11 mps 721 mmHg 15%
    18:00 +36°C° 0 mm 10 mps 721 mmHg 15%
    19:00 +33°C° 0 mm 10 mps 721 mmHg 16%
    20:00 +32°C° 0 mm 10 mps 722 mmHg 16%
    21:00 +29°C° 0 mm 10 mps 722 mmHg 20%
    22:00 +27°C° 0 mm 10 mps 722 mmHg 24%
    23:00 +24°C° 0 mm 10 mps 723 mmHg 27%

    Tomorrow, 24 January, Thursday

    Time Temperature Precipitation Wind Pressure Humidity
    00:00 +23°C° 0 mm 10 mps 723 mmHg 36%
    01:00 +21°C° 0 mm 9 mps 723 mmHg 44%
    02:00 +19°C° 0 mm 9 mps 723 mmHg 53%
    03:00 +20°C° 0 mm 8 mps 724 mmHg 55%
    04:00 +18°C° 0 mm 8 mps 724 mmHg 57%
    05:00 +18°C° 0 mm 7 mps 724 mmHg 59%
    06:00 +18°C° 0 mm 7 mps 725 mmHg 57%
    07:00 +20°C° 0 mm 7 mps 725 mmHg 54%
    08:00 +21°C° 0 mm 6 mps 726 mmHg 52%
    09:00 +22°C° 0 mm 6 mps 726 mmHg 47%
    10:00 +24°C° 0 mm 6 mps 725 mmHg 41%
    11:00 +27°C° 0 mm 6 mps 725 mmHg 36%
    12:00 +29°C° 0 mm 5 mps 725 mmHg 32%
    13:00 +30°C° 0 mm 5 mps 725 mmHg 28%
    14:00 +33°C° 0 mm 5 mps 725 mmHg 24%
    15:00 +33°C° 0 mm 5 mps 725 mmHg 24%
    16:00 +34°C° 0 mm 5 mps 725 mmHg 23%
    17:00 +34°C° 0 mm 5 mps 725 mmHg 23%
    18:00 +33°C° 0 mm 7 mps 725 mmHg 27%
    19:00 +31°C° 0 mm 8 mps 726 mmHg 31%
    20:00 +28°C° 0 mm 9 mps 726 mmHg 34%
    21:00 +27°C° 0 mm 9 mps 727 mmHg 40%
    22:00 +24°C° 0 mm 9 mps 727 mmHg 46%
    23:00 +22°C° 0 mm 9 mps 728 mmHg 51%

    Day after tomorrow, 25 January, Friday

    Time Temperature Precipitation Wind Pressure Humidity
    00:00 +21°C° 0 mm 8 mps 727 mmHg 55%
    01:00 +20°C° 0 mm 8 mps 727 mmHg 58%
    02:00 +18°C° 0 mm 7 mps 727 mmHg 62%
    03:00 +18°C° 0 mm 7 mps 727 mmHg 64%
    04:00 +17°C° 0 mm 7 mps 728 mmHg 67%
    05:00 +17°C° 0 mm 6 mps 728 mmHg 69%
    06:00 +19°C° 0 mm 6 mps 728 mmHg 65%
    07:00 +20°C° 0 mm 6 mps 729 mmHg 62%
    08:00 +20°C° 0 mm 6 mps 729 mmHg 58%
    09:00 +22°C° 0 mm 5 mps 729 mmHg 52%
    10:00 +25°C° 0 mm 5 mps 729 mmHg 46%
    11:00 +27°C° 0 mm 4 mps 729 mmHg 39%
    12:00 +29°C° 0 mm 4 mps 728 mmHg 35%
    13:00 +30°C° 0 mm 3 mps 727 mmHg 32%
    14:00 +33°C° 0 mm 3 mps 727 mmHg 28%
    15:00 +32°C° 0 mm 2 mps 726 mmHg 26%
    16:00 +34°C° 0 mm 2 mps 726 mmHg 24%
    17:00 +34°C° 0 mm 2 mps 726 mmHg 22%
    18:00 +34°C° 0 mm 2 mps 726 mmHg 23%
    19:00 +33°C° 0 mm 3 mps 727 mmHg 24%
    20:00 +33°C° 0 mm 4 mps 727 mmHg 24%
    21:00 +32°C° 0 mm 4 mps 727 mmHg 25%
    22:00 +30°C° 0 mm 5 mps 727 mmHg 27%
    23:00 +29°C° 0 mm 6 mps 728 mmHg 28%

    26 January, Saturday

    Time Temperature Precipitation Wind Pressure Humidity
    00:00 +28°C° 0 mm 6 mps 728 mmHg 35%
    01:00 +26°C° 0 mm 7 mps 728 mmHg 42%
    02:00 +24°C° 0 mm 7 mps 727 mmHg 49%
    03:00 +23°C° 0 mm 7 mps 728 mmHg 53%
    04:00 +22°C° 0 mm 7 mps 728 mmHg 56%
    05:00 +21°C° 0 mm 7 mps 728 mmHg 59%
    06:00 +21°C° 0 mm 7 mps 729 mmHg 58%
    07:00 +22°C° 0 mm 7 mps 729 mmHg 56%
    08:00 +22°C° 0 mm 7 mps 730 mmHg 55%
    09:00 +24°C° 0 mm 7 mps 730 mmHg 49%
    10:00 +28°C° 0 mm 6 mps 730 mmHg 43%
    11:00 +30°C° 0 mm 6 mps 730 mmHg 37%
    12:00 +32°C° 0 mm 6 mps 729 mmHg 35%
    13:00 +33°C° 0 mm 5 mps 729 mmHg 32%
    14:00 +35°C° 0 mm 5 mps 728 mmHg 29%
    15:00 +35°C° 0 mm 4 mps 728 mmHg 27%
    16:00 +36°C° 0 mm 4 mps 728 mmHg 25%
    17:00 +36°C° 0 mm 4 mps 728 mmHg 24%
    18:00 +35°C° 0 mm 5 mps 728 mmHg 22%
    19:00 +34°C° 0 mm 7 mps 729 mmHg 21%
    20:00 +33°C° 0 mm 9 mps 729 mmHg 20%
    21:00 +29°C° 0 mm 10 mps 730 mmHg 28%
    22:00 +27°C° 0 mm 10 mps 730 mmHg 36%
    23:00 +24°C° 0 mm 11 mps 730 mmHg 44%

    27 January, Sunday

    Time Temperature Precipitation Wind Pressure Humidity
    00:00 +22°C° 0 mm 10 mps 730 mmHg 49%
    01:00 +21°C° 0 mm 9 mps 730 mmHg 54%
    02:00 +20°C° 0 mm 8 mps 730 mmHg 59%
    03:00 +20°C° 0 mm 8 mps 730 mmHg 61%
    04:00 +18°C° 0 mm 7 mps 731 mmHg 63%
    05:00 +19°C° 0 mm 6 mps 731 mmHg 65%
    06:00 +19°C° 0 mm 6 mps 731 mmHg 61%
    07:00 +20°C° 0 mm 6 mps 732 mmHg 57%
    08:00 +21°C° 0 mm 6 mps 732 mmHg 53%
    09:00 +23°C° 0 mm 6 mps 732 mmHg 48%
    10:00 +27°C° 0 mm 5 mps 731 mmHg 42%
    11:00 +29°C° 0 mm 4 mps 731 mmHg 37%
    12:00 +30°C° 0 mm 4 mps 730 mmHg 34%
    13:00 +31°C° 0 mm 3 mps 730 mmHg 31%
    14:00 +34°C° 0 mm 3 mps 729 mmHg 28%
    15:00 +34°C° 0 mm 3 mps 729 mmHg 26%
    16:00 +35°C° 0 mm 3 mps 729 mmHg 24%
    17:00 +35°C° 0 mm 4 mps 728 mmHg 22%
    18:00 +35°C° 0 mm 4 mps 729 mmHg 22%
    19:00 +34°C° 0 mm 4 mps 729 mmHg 21%
    20:00 +33°C° 0 mm 4 mps 729 mmHg 21%
    21:00 +32°C° 0 mm 5 mps 730 mmHg 19%
    22:00 +32°C° 0 mm 6 mps 730 mmHg 18%
    23:00 +30°C° 0 mm 6 mps 730 mmHg 17%

    28 January, Monday

    Time Temperature Precipitation Wind Pressure Humidity
    00:00 +29°C° 0 mm 6 mps 730 mmHg 20%
    01:00 +28°C° 0 mm 7 mps 729 mmHg 23%
    02:00 +26°C° 0 mm 7 mps 729 mmHg 27%
    03:00 +26°C° 0 mm 6 mps 729 mmHg 31%
    04:00 +24°C° 0 mm 6 mps 729 mmHg 36%
    05:00 +23°C° 0 mm 5 mps 729 mmHg 40%
    06:00 +25°C° 0 mm 5 mps 729 mmHg 38%
    07:00 +26°C° 0 mm 6 mps 730 mmHg 36%
    08:00 +27°C° 0 mm 6 mps 730 mmHg 34%
    09:00 +29°C° 0 mm 5 mps 730 mmHg 30%
    10:00 +32°C° 0 mm 5 mps 730 mmHg 26%
    11:00 +34°C° 0 mm 4 mps 729 mmHg 21%
    12:00 +35°C° 0 mm 3 mps 729 mmHg 19%
    13:00 +36°C° 0 mm 2 mps 728 mmHg 17%
    14:00 +36°C° 0 mm 1 mps 727 mmHg 15%
    15:00 +37°C° 0 mm 2 mps 727 mmHg 14%
    16:00 +37°C° 0 mm 2 mps 727 mmHg 13%
    17:00 +38°C° 0 mm 2 mps 727 mmHg 12%
    18:00 +37°C° 0 mm 3 mps 727 mmHg 13%
    19:00 +36°C° 0 mm 3 mps 727 mmHg 13%
    20:00 +36°C° 0 mm 4 mps 727 mmHg 13%
    21:00 +35°C° 0 mm 5 mps 727 mmHg 13%
    22:00 +34°C° 0 mm 5 mps 727 mmHg 14%
    23:00 +34°C° 0 mm 6 mps 726 mmHg 14%
    Show more